[[{"header":{"parameterUnit":"m.s-1","parameterCategory":1,"la1":30.2991,"la2":30.254,"lo1":-89.0895,"lo2":-89.0444,"dy":0.0017,"dx":0.0017,"nx":28,"ny":28,"refTime":"2025-12-19T09:00:00:Z","depth":0,"parameterNumber":2,"parameterNumberName":"U-component_of_WINDS"},"data":[0,0,0,0,0,0,0,0,0,0,0,0,0,0,0,0,0,0,0,0,0,0,0,0,0,0,0,0,0,0,0,0,0,0,0,0,0,0,0,0,0,0,0,0,0,0,0,0,0,0,0,0,0,0,0,0,0,0,-1.62,-1.62,0,-1.623,-1.623,-1.623,-1.6229,-1.6229,-1.6229,-1.6228,-1.6258,-1.6259,-1.626,0,0,0,0,0,0,0,0,0,0,0,0,0,-1.6141,-1.6142,-1.62,-1.62,-1.6201,-1.623,-1.623,-1.6231,-1.6229,-1.6229,-1.6228,-1.6228,-1.6258,-1.6259,-1.626,0,0,0,0,0,0,0,0,0,0,0,0,0,-1.6168,-1.6142,-1.62,-1.6204,-1.6204,-1.623,-1.623,-1.6231,-1.623,-1.6229,-1.6228,-1.6228,-1.6257,-1.6259,-1.6261,-1.6284,0,0,-1.6266,-1.6267,0,0,0,0,0,0,0,0,-1.6167,-1.617,-1.6203,-1.6203,-1.6204,-1.6225,-1.622,-1.6248,-1.623,-1.622,-1.6228,-1.6227,-1.6248,-1.625,-1.6257,-1.6285,-1.6286,-1.6266,-1.6267,-1.6268,-1.6268,0,0,0,0,0,0,0,-1.6165,-1.6169,-1.6212,-1.6203,-1.6204,-1.6203,-1.6207,-1.6226,-1.6237,-1.6221,-1.6221,-1.6224,-1.6248,-1.6255,-1.6258,-1.6287,-1.6266,-1.6268,-1.6269,-1.6269,-1.6334,-1.6335,0,0,0,0,0,0,-1.6162,-1.6168,-1.6211,-1.6213,-1.6184,-1.6205,-1.6209,-1.6219,-1.6237,-1.6239,-1.6225,-1.6224,-1.6253,-1.6256,-1.6259,-1.6286,-1.6268,-1.627,-1.6271,-1.6334,-1.6334,-1.6335,0,0,0,0,0,0,-1.6161,-1.6166,-1.621,-1.619,-1.6196,-1.6207,-1.6219,-1.622,-1.6227,-1.624,-1.6242,-1.623,-1.6252,-1.6256,-1.6277,-1.6287,-1.627,-1.6272,-1.6333,-1.6334,-1.6335,-1.6341,0,0,0,0,0,0,-1.6159,-1.6166,-1.6175,-1.619,-1.6197,-1.6228,-1.6219,-1.6221,-1.6231,-1.623,-1.6245,-1.6247,-1.6252,-1.6275,-1.6279,-1.6289,-1.6273,-1.6332,-1.6333,-1.6334,-1.634,-1.6342,-1.6344,0,0,0,0,0,-1.6157,-1.6176,-1.6175,-1.6181,-1.6209,-1.6229,-1.6232,-1.6237,-1.6231,-1.624,-1.6248,-1.6247,-1.6285,-1.6277,-1.6282,-1.6293,-1.6331,-1.6333,-1.6334,-1.6339,-1.6342,-1.6344,0,0,0,0,0,0,-1.6161,-1.6178,-1.6178,-1.6202,-1.6214,-1.6229,-1.624,-1.624,-1.6254,-1.6253,-1.6258,-1.6262,-1.6283,-1.629,-1.628,-1.6315,-1.6308,-1.631,-1.631,-1.6312,-1.6314,-1.6312,-1.6275,0,0,0,0,0,-1.6165,-1.618,-1.6194,-1.6214,-1.622,-1.6229,-1.6238,-1.6241,-1.6253,-1.6258,-1.6268,-1.628,-1.6294,-1.6304,-1.6318,-1.6342,-1.6344,-1.6351,-1.6353,-1.6355,-1.6357,-1.6368,-1.6371,-1.634,-1.634,-1.634,0,0,-1.6173,-1.6184,-1.6193,-1.6215,-1.6225,-1.624,-1.6233,-1.625,-1.6261,-1.6261,-1.6281,-1.6288,-1.6302,-1.6324,-1.6334,-1.6331,-1.6366,-1.6357,-1.6358,-1.6359,-1.637,-1.6373,-1.6376,-1.6341,-1.6341,-1.6341,0,0,-1.6195,-1.6205,-1.6222,-1.6232,-1.6246,-1.6252,-1.6256,-1.6271,-1.6276,-1.6296,-1.6296,-1.6309,-1.6335,-1.6344,-1.6352,-1.6376,-1.6375,-1.6381,-1.6391,-1.6402,-1.6405,-1.6407,-1.6414,-1.6417,-1.6383,-1.6383,-1.6383,0,-1.6203,-1.6226,-1.6231,-1.6247,-1.6256,-1.6257,-1.6274,-1.6283,-1.6302,-1.6308,-1.6304,-1.6335,-1.6344,-1.6368,-1.6373,-1.638,-1.6385,-1.6379,-1.6404,-1.6406,-1.6408,-1.6416,-1.6418,-1.6383,-1.6383,-1.6383,-1.6383,0,-1.6234,-1.625,-1.6262,-1.6279,-1.629,-1.6307,-1.6314,-1.6324,-1.6326,-1.6332,-1.6352,-1.6363,-1.6379,-1.6385,-1.6387,-1.6409,-1.6406,-1.6403,-1.6395,-1.6412,-1.6418,-1.6421,-1.6384,-1.6384,-1.6384,-1.6384,0,0,-1.6259,-1.6279,-1.6283,-1.6291,-1.6306,-1.6319,-1.6335,-1.635,-1.6358,-1.6371,-1.6384,-1.6405,-1.6402,-1.6411,-1.6414,-1.6425,-1.6442,-1.642,-1.642,-1.6423,-1.6465,-1.6466,-1.6469,-1.6441,-1.6442,-1.6442,-1.6463,0,-1.6282,-1.6311,-1.6316,-1.6341,-1.6355,-1.6355,-1.6369,-1.638,-1.6386,-1.6398,-1.6405,-1.6419,-1.6415,-1.642,-1.643,-1.6437,-1.645,-1.6436,-1.6453,-1.6453,-1.6448,-1.6473,-1.6475,-1.6494,-1.6466,-1.6466,-1.6467,0,-1.6312,-1.6325,-1.6351,-1.6364,-1.637,-1.6383,-1.6397,-1.6409,-1.6421,-1.6424,-1.6434,-1.6436,-1.6452,-1.6444,-1.6466,-1.6456,-1.6463,-1.6468,-1.6469,-1.647,-1.646,-1.6474,-1.65,-1.6503,-1.6471,-1.6471,-1.647,0,-1.6326,-1.635,-1.6369,-1.6375,-1.6391,-1.64,-1.6407,-1.6418,-1.6427,-1.6439,-1.6445,-1.6459,-1.6466,-1.6477,-1.6482,-1.6476,-1.6503,-1.6495,-1.6505,-1.6505,-1.651,-1.651,-1.6537,-1.6516,-1.6516,-1.6516,-1.6516,0,-1.635,-1.6366,-1.6375,-1.6387,-1.6404,-1.6409,-1.6426,-1.6433,-1.6443,-1.6455,-1.6457,-1.6468,-1.6475,-1.6487,-1.6491,-1.6507,-1.6511,-1.6514,-1.6514,-1.6513,-1.6513,-1.6517,-1.6516,-1.6517,-1.6517,-1.6517,-1.6517,0,-1.6369,-1.6376,-1.6396,-1.6409,-1.6413,-1.6425,-1.6436,-1.6446,-1.6452,-1.6467,-1.6471,-1.648,-1.6494,-1.6501,-1.6518,-1.6521,-1.654,-1.654,-1.6535,-1.6535,-1.6545,-1.6543,-1.6575,-1.6579,-1.6557,-1.6557,-1.6557,0,-1.6384,-1.6396,-1.641,-1.6418,-1.6425,-1.6438,-1.6447,-1.6453,-1.6462,-1.6476,-1.6484,-1.6499,-1.651,-1.6533,-1.654,-1.6553,-1.6553,-1.6564,-1.6555,-1.6553,-1.6552,-1.6551,-1.6552,-1.6565,-1.6565,-1.6565,-1.6566,0,-1.6408,-1.6411,-1.6423,-1.6437,-1.6447,-1.6458,-1.6469,-1.6476,-1.6483,-1.6492,-1.6507,-1.6516,-1.6533,-1.6547,-1.6561,-1.6567,-1.6567,-1.6568,-1.6571,-1.6569,-1.6566,-1.6567,-1.6539,-1.6567,-1.6567,-1.6567,-1.6567,-1.6567,-1.6425,-1.6435,-1.6446,-1.646,-1.6468,-1.6478,-1.6488,-1.6495,-1.6507,-1.6522,-1.6525,-1.654,-1.655,-1.6568,-1.6576,-1.6587,-1.6584,-1.6589,-1.659,-1.659,-1.659,-1.6565,-1.659,-1.659,-1.659,-1.659,-1.6589,0,-1.6448,-1.6455,-1.6468,-1.6483,-1.6493,-1.6492,-1.6504,-1.6513,-1.6526,-1.6536,-1.6547,-1.6563,-1.6576,-1.6585,-1.6598,-1.6606,-1.6606,-1.6609,-1.6608,-1.6609,-1.6593,-1.6588,-1.6608,-1.6608,-1.6608,-1.6608,-1.6608,-1.6608,-1.6462,-1.6479,-1.6483,-1.6503,-1.651,-1.6525,-1.6532,-1.654,-1.6548,-1.6566,-1.6577,-1.6583,-1.6592,-1.6605,-1.6617,-1.6619,-1.6623,-1.6626,-1.6628,-1.6612,-1.661,-1.6608,-1.6605,-1.6627,-1.6628,-1.6644,-1.6644,-1.6644]},{"header":{"parameterUnit":"m.s-1","parameterCategory":1,"la1":30.2991,"la2":30.254,"lo1":-89.0895,"lo2":-89.0444,"dy":0.0017,"dx":0.0017,"nx":28,"ny":28,"refTime":"2025-12-19T09:00:00:Z","depth":0,"parameterNumber":3,"parameterNumberName":"V-component_of_WINDS"},"data":[0,0,0,0,0,0,0,0,0,0,0,0,0,0,0,0,0,0,0,0,0,0,0,0,0,0,0,0,0,0,0,0,0,0,0,0,0,0,0,0,0,0,0,0,0,0,0,0,0,0,0,0,0,0,0,0,0,0,0.6035,0.6036,0,0.6155,0.6157,0.6158,0.6207,0.6206,0.6206,0.6206,0.6331,0.6334,0.6338,0,0,0,0,0,0,0,0,0,0,0,0,0,0.5851,0.5854,0.6035,0.6037,0.6038,0.6155,0.6157,0.6158,0.6207,0.6206,0.6206,0.6206,0.633,0.6334,0.6338,0,0,0,0,0,0,0,0,0,0,0,0,0,0.5947,0.5855,0.6035,0.6076,0.6081,0.6155,0.6157,0.6159,0.6207,0.6206,0.6206,0.6206,0.6328,0.6334,0.6339,0.6381,0,0,0.6355,0.6358,0,0,0,0,0,0,0,0,0.5941,0.5954,0.6069,0.6074,0.6079,0.6166,0.6138,0.6233,0.6207,0.6159,0.6206,0.6205,0.6276,0.6286,0.631,0.6387,0.6392,0.6356,0.6359,0.6362,0.6363,0,0,0,0,0,0,0,0.5935,0.5949,0.6083,0.607,0.6077,0.609,0.6103,0.6156,0.6219,0.6163,0.6167,0.6181,0.6279,0.6304,0.6313,0.6394,0.6356,0.6361,0.6364,0.6366,0.6514,0.6515,0,0,0,0,0,0,0.5921,0.5943,0.6079,0.6086,0.6008,0.6094,0.6108,0.6138,0.6218,0.623,0.6181,0.6182,0.6295,0.6307,0.6318,0.6374,0.6361,0.6367,0.637,0.6513,0.6514,0.6515,0,0,0,0,0,0,0.5917,0.5932,0.6074,0.6016,0.6035,0.6097,0.613,0.6141,0.6166,0.6232,0.6243,0.6195,0.6295,0.631,0.6365,0.6378,0.6369,0.6374,0.6512,0.6514,0.6514,0.6484,0,0,0,0,0,0,0.5911,0.5931,0.5946,0.6016,0.6038,0.6119,0.6131,0.6144,0.6175,0.6178,0.6248,0.6259,0.6296,0.6357,0.6371,0.6386,0.6378,0.6512,0.6513,0.6514,0.6485,0.6484,0.6484,0,0,0,0,0,0.5904,0.5933,0.5947,0.5963,0.6058,0.6119,0.6132,0.6174,0.6176,0.6193,0.6235,0.6257,0.6374,0.6362,0.6378,0.6395,0.6511,0.6513,0.6514,0.6485,0.6484,0.6484,0,0,0,0,0,0,0.5864,0.5943,0.5959,0.6011,0.6058,0.6127,0.615,0.6172,0.622,0.6221,0.6271,0.6287,0.6338,0.6372,0.6357,0.6441,0.6445,0.6449,0.6417,0.6417,0.6417,0.6408,0.6383,0,0,0,0,0,0.5861,0.5903,0.597,0.6009,0.6032,0.6087,0.6115,0.6143,0.6194,0.6215,0.6261,0.631,0.6359,0.639,0.6438,0.649,0.6506,0.6509,0.6509,0.6508,0.6512,0.6544,0.6546,0.652,0.652,0.652,0,0,0.5856,0.5904,0.5927,0.6002,0.6042,0.6086,0.6103,0.6148,0.6181,0.6222,0.6277,0.6313,0.6371,0.6425,0.6452,0.6455,0.6523,0.651,0.6509,0.6514,0.6546,0.6548,0.655,0.6521,0.6521,0.6521,0,0,0.5868,0.5908,0.5946,0.5986,0.6046,0.6082,0.6091,0.6158,0.6183,0.6239,0.6271,0.6312,0.6393,0.6435,0.6466,0.6496,0.6518,0.651,0.6509,0.6539,0.6541,0.6544,0.6555,0.6559,0.6513,0.6513,0.6513,0,0.5854,0.5919,0.5963,0.6006,0.6039,0.6078,0.6117,0.6154,0.6227,0.6249,0.6252,0.6357,0.6399,0.6464,0.6471,0.6495,0.6508,0.6502,0.6537,0.654,0.6543,0.6555,0.6559,0.6512,0.6512,0.6512,0.6512,0,0.59,0.5945,0.5969,0.6038,0.6074,0.6115,0.6166,0.6197,0.6222,0.6259,0.6317,0.6369,0.6429,0.6446,0.6471,0.6515,0.6516,0.6527,0.6532,0.6543,0.6555,0.656,0.651,0.6511,0.6511,0.6511,0,0,0.589,0.5983,0.5991,0.6024,0.6094,0.613,0.6174,0.6232,0.6259,0.6308,0.6347,0.6416,0.6428,0.6464,0.6494,0.652,0.6543,0.6529,0.6531,0.6531,0.6596,0.6588,0.6592,0.6557,0.6558,0.6559,0.6592,0,0.5912,0.5991,0.6032,0.6095,0.6138,0.6176,0.6215,0.6262,0.6298,0.6341,0.6381,0.643,0.644,0.6463,0.649,0.6534,0.6556,0.6532,0.6596,0.6597,0.658,0.6598,0.659,0.6618,0.6597,0.6597,0.6598,0,0.5949,0.5998,0.6064,0.6131,0.615,0.6184,0.6242,0.6282,0.6338,0.6362,0.6403,0.6433,0.6482,0.6483,0.6552,0.6535,0.6563,0.6589,0.6591,0.6599,0.6599,0.6608,0.6627,0.6632,0.6606,0.6605,0.6605,0,0.5936,0.6019,0.607,0.6096,0.6174,0.6198,0.6232,0.6287,0.632,0.6371,0.6393,0.6449,0.648,0.6523,0.6568,0.6564,0.6633,0.6637,0.6656,0.6655,0.6669,0.6668,0.6694,0.6686,0.6686,0.6686,0.6686,0,0.5957,0.5997,0.6065,0.6096,0.6143,0.619,0.6235,0.6272,0.6321,0.6362,0.6398,0.6435,0.6491,0.6536,0.6572,0.6625,0.6638,0.666,0.6669,0.6657,0.6655,0.6677,0.6677,0.6687,0.6687,0.6686,0.6686,0,0.5951,0.5998,0.6056,0.6126,0.6145,0.6176,0.6236,0.6269,0.6307,0.6357,0.6372,0.6432,0.6487,0.6536,0.6608,0.6632,0.6687,0.6697,0.6668,0.6673,0.6689,0.6687,0.6732,0.6741,0.6725,0.6725,0.6725,0,0.5961,0.5993,0.6066,0.6096,0.6129,0.6176,0.621,0.6258,0.6293,0.636,0.6385,0.6442,0.6491,0.6577,0.6627,0.6683,0.6696,0.6708,0.6705,0.6693,0.6698,0.6696,0.67,0.6708,0.6708,0.6708,0.6708,0,0.5976,0.5998,0.6045,0.6102,0.6141,0.6188,0.6236,0.6258,0.6316,0.6353,0.641,0.6447,0.6522,0.6579,0.6641,0.6677,0.6703,0.6708,0.6716,0.6705,0.6687,0.6698,0.6668,0.6707,0.6707,0.6707,0.6707,0.6707,0.598,0.601,0.6067,0.6119,0.616,0.6204,0.6239,0.6282,0.6329,0.6394,0.642,0.6478,0.6534,0.662,0.6657,0.6703,0.6708,0.6718,0.6721,0.6724,0.6722,0.6678,0.6715,0.6715,0.6715,0.6715,0.6715,0,0.5997,0.6036,0.6083,0.6149,0.6191,0.6211,0.6265,0.6299,0.6349,0.64,0.6447,0.6513,0.6569,0.6624,0.6684,0.671,0.6724,0.6725,0.6724,0.6732,0.6714,0.6702,0.6713,0.6713,0.6713,0.6713,0.6713,0.6713,0.6011,0.6064,0.6093,0.6168,0.6207,0.6263,0.6293,0.6335,0.6376,0.6447,0.6494,0.653,0.6583,0.6647,0.6699,0.6714,0.6735,0.6733,0.6751,0.6733,0.6733,0.6732,0.6722,0.6737,0.6737,0.6765,0.6766,0.6766]}]]